Kelowna Airport
CYLW : now visible

Airfield :











YOU CAN JOIN US ON...

 
LOGIN :

Register | Disclaimer

   EN    FR    IT 

 









Legend :    VFR   Marginal VFR   IFR   Intensive IFR   Very Intensive IFR
Visi :
Ceiling :
>= 8 km
>= 3000ft
5 to 8 km
1000 to 3000 ft
1500m to 5 km
500 to 1000 ft
800 to 1500m
200 to 500 ft
< 800m
< 200 ft
Symbols :   Thunderstorms  Fog  Heavy snow  Heavy precipitations  Wind > 20 kt






- Airport Elevation : 1409 ft
- IATA code : YLW


CYLW - Kelowna

CURRENT METAR :
  • 021937Z AUTO 34016KT 3/4SM HZ CLR 26/18 A3010 RMK SLP184 DENSITY ALT 2800FT

EXPIRED METARs :
  • 021900Z AUTO 36006KT 3/4SM HZ FEW027 25/18 A3011 RMK SLP192 DENSITY ALT 2700FT
  • 021800Z AUTO 01003KT 310V070 3/4SM HZ BKN027 23/18 A3012 RMK SLP196 DENSITY ALT 2500FT
  • 021700Z AUTO VRB03KT 3/4SM HZ BKN025 22/18 A3013 RMK SLP200 DENSITY ALT 2300FT

TAF TAF CYLW
Valid from the 02 at 19:00 until the 03 at 07:00 UTC


021838Z 0219/0307 VRB03KT 3/4SM FU BKN030
BECMG 0220/0222 34008KT
BECMG 0302/0304 VRB03KT RMK FCST BASED ON AUTO OBS. NXT FCST BY 030100Z
CZVR FIR / North America



MET'MAP, your aeronautical weather chart ! - Copyright ORBIFLY December 2007 - Disclaimer

ORBIFLY MET'MAP TEAM :

Programming & Development : Alexandra Zaïnal
Concept & original design : Baudouin d'Aumeries
Assistance for programming : Marc-Olivier Méhu
Technical & hardware support : Manuel Goepfert

Contact : metmap@orbifly.com




SOURCES & CREDITS :

   NOAA       Earth
Advisory